[[{"header":{"parameterUnit":"m.s-1","parameterCategory":2,"la1":30.2991,"la2":30.254,"lo1":-89.0895,"lo2":-89.0444,"dy":0.0017,"dx":0.0017,"nx":28,"ny":28,"refTime":"2025-11-08T03:00:00:Z","depth":"0","parameterNumber":2,"parameterNumberName":"U-component_of_CURRENTS"},"data":[0,0,0,0,0,0,0,0,0,0,0,0,0,0,0,0,0,0,0,0,0,0,0,0,0,0,0,0,0,0,0,0,0,0,0,0,0,0,0,0,0,0,0,0,0,0,0,0,0,0,0,0,0,0,0,0,0,0,0.129,0.129,0,0.1319,0.1319,0.132,0.1322,0.1321,0.1321,0.1321,0.1324,0.1324,0.1324,0,0,0,0,0,0,0,0,0,0,0,0,0,0.1198,0.12,0.129,0.129,0.1291,0.1319,0.1319,0.132,0.1322,0.1321,0.1321,0.1321,0.1324,0.1324,0.1324,0,0,0,0,0,0,0,0,0,0,0,0,0,0.1232,0.1201,0.129,0.1297,0.1298,0.1319,0.132,0.132,0.1322,0.1321,0.1321,0.1321,0.1324,0.1324,0.1324,0.133,0,0,0.1325,0.1325,0,0,0,0,0,0,0,0,0.123,0.1235,0.1295,0.1296,0.1298,0.1318,0.1288,0.1323,0.1322,0.131,0.1321,0.1321,0.1321,0.1322,0.1325,0.1331,0.1331,0.1325,0.1326,0.1326,0.1326,0,0,0,0,0,0,0,0.1228,0.1234,0.1299,0.1296,0.1297,0.1286,0.1291,0.1295,0.1314,0.1311,0.1312,0.1319,0.1321,0.1325,0.1325,0.1331,0.1325,0.1326,0.1326,0.1326,0.1339,0.134,0,0,0,0,0,0,0.1231,0.1232,0.1298,0.13,0.1265,0.1288,0.1293,0.131,0.1315,0.1316,0.1319,0.1319,0.1324,0.1325,0.1325,0.1329,0.1326,0.1326,0.1326,0.1339,0.1339,0.134,0,0,0,0,0,0,0.1229,0.1237,0.1297,0.1268,0.1275,0.1291,0.1309,0.1311,0.1313,0.1322,0.1322,0.1319,0.1324,0.1325,0.133,0.1329,0.1326,0.1326,0.1339,0.1339,0.134,0.1338,0,0,0,0,0,0,0.1227,0.1237,0.1244,0.1268,0.1277,0.1306,0.131,0.1312,0.1319,0.1318,0.1322,0.1322,0.1324,0.1329,0.133,0.1329,0.1327,0.1339,0.1339,0.1339,0.1338,0.1338,0.1339,0,0,0,0,0,0.1223,0.1237,0.1245,0.1253,0.1289,0.1306,0.1309,0.1317,0.1319,0.1318,0.1324,0.1322,0.1332,0.133,0.1331,0.133,0.1339,0.1339,0.1339,0.1338,0.1338,0.1339,0,0,0,0,0,0,0.1199,0.1239,0.1248,0.1273,0.1286,0.1307,0.131,0.1316,0.1321,0.1321,0.1326,0.1326,0.1331,0.1332,0.1329,0.1335,0.1334,0.1335,0.1333,0.1333,0.1334,0.1347,0.1327,0,0,0,0,0,0.1199,0.1221,0.125,0.1266,0.1275,0.1292,0.1298,0.1306,0.1317,0.1319,0.1322,0.1326,0.1334,0.1334,0.134,0.1342,0.1419,0.1342,0.1342,0.1343,0.1354,0.144,0.145,0.1341,0.1341,0.1341,0,0,0.1197,0.1219,0.1232,0.1262,0.1274,0.129,0.1294,0.1306,0.1316,0.1318,0.1326,0.1328,0.1336,0.1341,0.1343,0.134,0.143,0.1343,0.1343,0.1355,0.1442,0.1453,0.1463,0.1341,0.1341,0.1341,0,0,0.1196,0.1219,0.1235,0.1249,0.127,0.1284,0.1287,0.1306,0.131,0.1319,0.1326,0.133,0.1335,0.1343,0.1348,0.1354,0.143,0.1351,0.1361,0.1443,0.1454,0.1463,0.165,0.1676,0.1348,0.1348,0.1348,0,0.1185,0.1219,0.1238,0.1252,0.1269,0.1282,0.1299,0.1306,0.1321,0.1332,0.132,0.1347,0.1339,0.1365,0.1359,0.1355,0.1454,0.1357,0.1446,0.1457,0.1467,0.1655,0.1684,0.1348,0.1348,0.1348,0.1348,0,0.1201,0.1223,0.1232,0.1263,0.1276,0.1293,0.1313,0.1321,0.1327,0.1338,0.1359,0.1357,0.1383,0.1366,0.1359,0.1417,0.1489,0.1441,0.1449,0.1478,0.1675,0.1706,0.1348,0.1348,0.1348,0.1348,0,0,0.1194,0.1236,0.1239,0.1259,0.1287,0.1305,0.1321,0.1351,0.1384,0.1374,0.1429,0.14,0.1412,0.1419,0.1416,0.146,0.1621,0.1478,0.1482,0.1674,0.1905,0.1987,0.2029,0.1591,0.1594,0.1597,0.2044,0,0.1201,0.1235,0.1254,0.1288,0.1313,0.1333,0.1355,0.1378,0.1404,0.1458,0.1455,0.1501,0.1431,0.1464,0.1492,0.1594,0.1688,0.1511,0.1839,0.1852,0.1925,0.206,0.2044,0.244,0.2074,0.2079,0.2082,0,0.122,0.1241,0.1276,0.1323,0.1336,0.1354,0.1416,0.1442,0.1505,0.1532,0.1568,0.1594,0.1673,0.1601,0.1806,0.1705,0.1811,0.1877,0.1895,0.1986,0.1986,0.2335,0.251,0.24,0.2129,0.2126,0.2122,0,0.1227,0.1263,0.1295,0.1309,0.1356,0.1375,0.1406,0.146,0.1509,0.1608,0.1681,0.175,0.1855,0.1937,0.2074,0.1964,0.2344,0.2215,0.2406,0.2418,0.2477,0.2486,0.2583,0.2375,0.2374,0.2373,0.2372,0,0.1245,0.1271,0.13,0.132,0.1364,0.1392,0.1458,0.1501,0.1596,0.1706,0.1732,0.1869,0.1937,0.214,0.22,0.2464,0.2471,0.2476,0.2536,0.2484,0.2488,0.2447,0.2346,0.239,0.2386,0.2383,0.238,0,0.1261,0.1278,0.1317,0.1357,0.1372,0.1408,0.149,0.1554,0.1641,0.1807,0.1859,0.204,0.2322,0.2444,0.2684,0.2691,0.2827,0.2965,0.2959,0.3006,0.2977,0.2876,0.2978,0.2879,0.324,0.3245,0.3249,0,0.1277,0.1298,0.1342,0.138,0.1401,0.1454,0.1506,0.1572,0.1672,0.1929,0.2045,0.2345,0.2573,0.2993,0.3098,0.3329,0.3104,0.3416,0.3135,0.304,0.2973,0.2756,0.2643,0.3273,0.3277,0.328,0.3282,0,0.1325,0.1337,0.1381,0.1449,0.1499,0.1547,0.1642,0.1717,0.1862,0.2017,0.2322,0.2523,0.2933,0.3172,0.3455,0.3545,0.3233,0.3483,0.3365,0.3011,0.2804,0.2717,0.2979,0.331,0.3307,0.3305,0.3304,0.3302,0.1387,0.143,0.1504,0.1566,0.1614,0.1693,0.1756,0.1879,0.2048,0.2312,0.2493,0.2781,0.31,0.348,0.3572,0.3651,0.3465,0.3525,0.3439,0.325,0.3033,0.3407,0.3773,0.3773,0.3773,0.3773,0.3773,0,0.1528,0.1579,0.1634,0.1726,0.179,0.1781,0.19,0.1978,0.2191,0.2411,0.2651,0.2983,0.3262,0.3467,0.366,0.3584,0.3362,0.3498,0.3146,0.3048,0.3421,0.3293,0.3591,0.3591,0.3591,0.3591,0.3591,0.3591,0.1634,0.1741,0.1757,0.1896,0.194,0.2031,0.2093,0.219,0.2332,0.2576,0.2747,0.2899,0.3178,0.3471,0.3505,0.3444,0.3101,0.3079,0.2933,0.3148,0.3138,0.3129,0.2982,0.3211,0.321,0.2463,0.2457,0.2453]},{"header":{"parameterUnit":"m.s-1","parameterCategory":2,"la1":30.2991,"la2":30.254,"lo1":-89.0895,"lo2":-89.0444,"dy":0.0017,"dx":0.0017,"nx":28,"ny":28,"refTime":"2025-11-08T03:00:00:Z","depth":"0","parameterNumber":3,"parameterNumberName":"V-component_of_CURRENTS"},"data":[0,0,0,0,0,0,0,0,0,0,0,0,0,0,0,0,0,0,0,0,0,0,0,0,0,0,0,0,0,0,0,0,0,0,0,0,0,0,0,0,0,0,0,0,0,0,0,0,0,0,0,0,0,0,0,0,0,0,-0.0438,-0.0438,0,-0.0468,-0.0469,-0.0469,-0.049,-0.049,-0.049,-0.049,-0.0527,-0.0527,-0.0528,0,0,0,0,0,0,0,0,0,0,0,0,0,-0.0391,-0.0392,-0.0438,-0.0438,-0.0439,-0.0468,-0.0469,-0.0469,-0.049,-0.049,-0.049,-0.049,-0.0526,-0.0527,-0.0528,0,0,0,0,0,0,0,0,0,0,0,0,0,-0.0415,-0.0392,-0.0438,-0.0453,-0.0454,-0.0468,-0.0469,-0.0469,-0.049,-0.049,-0.049,-0.049,-0.0526,-0.0527,-0.0529,-0.0531,0,0,-0.0532,-0.0533,0,0,0,0,0,0,0,0,-0.0414,-0.0417,-0.045,-0.0452,-0.0453,-0.0476,-0.0466,-0.049,-0.049,-0.0476,-0.049,-0.049,-0.051,-0.0513,-0.0517,-0.0533,-0.0534,-0.0532,-0.0533,-0.0534,-0.0534,0,0,0,0,0,0,0,-0.0412,-0.0416,-0.045,-0.045,-0.0453,-0.0456,-0.046,-0.047,-0.0491,-0.0477,-0.0479,-0.0482,-0.0511,-0.0516,-0.0518,-0.0535,-0.0532,-0.0533,-0.0534,-0.0535,-0.055,-0.0549,0,0,0,0,0,0,-0.0409,-0.0414,-0.0449,-0.0451,-0.0434,-0.0456,-0.0461,-0.0468,-0.0491,-0.0495,-0.0482,-0.0483,-0.0514,-0.0517,-0.052,-0.0535,-0.0534,-0.0535,-0.0535,-0.055,-0.0549,-0.0549,0,0,0,0,0,0,-0.0408,-0.0412,-0.0447,-0.0433,-0.0438,-0.0457,-0.0465,-0.0469,-0.0474,-0.0495,-0.0499,-0.0484,-0.0514,-0.0518,-0.0529,-0.0536,-0.0535,-0.0536,-0.055,-0.055,-0.0549,-0.0558,0,0,0,0,0,0,-0.0407,-0.0412,-0.0415,-0.0433,-0.0439,-0.0455,-0.0465,-0.0469,-0.0476,-0.0478,-0.0498,-0.0501,-0.0515,-0.0527,-0.053,-0.0538,-0.0537,-0.0551,-0.055,-0.0549,-0.0558,-0.0557,-0.0557,0,0,0,0,0,-0.0405,-0.041,-0.0415,-0.0419,-0.0443,-0.0455,-0.0458,-0.0472,-0.0476,-0.0478,-0.049,-0.0501,-0.0525,-0.0527,-0.0531,-0.054,-0.0551,-0.055,-0.055,-0.0558,-0.0558,-0.0557,0,0,0,0,0,0,-0.0391,-0.0414,-0.0419,-0.043,-0.044,-0.0459,-0.0463,-0.0469,-0.048,-0.0482,-0.0499,-0.0504,-0.0516,-0.0521,-0.0523,-0.0539,-0.0538,-0.0538,-0.0543,-0.0543,-0.0543,-0.0549,-0.0538,0,0,0,0,0,-0.0389,-0.04,-0.0417,-0.0425,-0.043,-0.0444,-0.045,-0.0459,-0.0472,-0.0477,-0.049,-0.0502,-0.0515,-0.0523,-0.0533,-0.0543,-0.0522,-0.0548,-0.0548,-0.0548,-0.0553,-0.0528,-0.0526,-0.0547,-0.0547,-0.0547,0,0,-0.0388,-0.0399,-0.0407,-0.0423,-0.0432,-0.0445,-0.0449,-0.0458,-0.0471,-0.0479,-0.0497,-0.0502,-0.0516,-0.053,-0.0535,-0.0536,-0.0523,-0.0547,-0.0547,-0.0552,-0.0527,-0.0525,-0.0523,-0.0546,-0.0546,-0.0546,0,0,-0.0389,-0.0398,-0.0408,-0.0417,-0.0429,-0.0441,-0.0442,-0.0457,-0.0467,-0.0479,-0.049,-0.05,-0.0515,-0.0532,-0.0542,-0.0543,-0.0522,-0.054,-0.0548,-0.0524,-0.0522,-0.052,-0.0461,-0.0454,-0.0541,-0.0541,-0.0541,0,-0.0383,-0.04,-0.0411,-0.042,-0.0429,-0.0439,-0.0449,-0.0463,-0.0479,-0.0479,-0.0485,-0.0498,-0.0521,-0.0534,-0.0546,-0.0546,-0.051,-0.0552,-0.0524,-0.0522,-0.052,-0.046,-0.0452,-0.0542,-0.0542,-0.0541,-0.0541,0,-0.0395,-0.0405,-0.0409,-0.0429,-0.0438,-0.0446,-0.0466,-0.0471,-0.0479,-0.0485,-0.049,-0.0511,-0.051,-0.0527,-0.0548,-0.0547,-0.0515,-0.0525,-0.0526,-0.0518,-0.0455,-0.0447,-0.0542,-0.0542,-0.0542,-0.0542,0,0,-0.0386,-0.0413,-0.0413,-0.0411,-0.0442,-0.044,-0.0468,-0.0479,-0.0453,-0.0489,-0.0455,-0.0522,-0.0509,-0.052,-0.0533,-0.0537,-0.0503,-0.0532,-0.053,-0.0476,-0.0411,-0.0379,-0.0367,-0.0502,-0.0501,-0.05,-0.0361,0,-0.0388,-0.0399,-0.0421,-0.0425,-0.0427,-0.0446,-0.045,-0.0459,-0.0453,-0.0416,-0.0455,-0.042,-0.0511,-0.0475,-0.0512,-0.0481,-0.0486,-0.0538,-0.0425,-0.0421,-0.0397,-0.0359,-0.037,-0.0247,-0.0353,-0.0352,-0.0351,0,-0.0389,-0.0393,-0.0401,-0.0393,-0.0393,-0.0394,-0.037,-0.0373,-0.035,-0.0332,-0.0336,-0.0326,-0.034,-0.0396,-0.0399,-0.0419,-0.0431,-0.043,-0.0424,-0.0391,-0.0376,-0.0278,-0.0228,-0.0442,-0.0338,-0.0339,-0.034,0,-0.0355,-0.0371,-0.037,-0.0375,-0.0375,-0.0367,-0.0359,-0.034,-0.029,-0.0247,-0.0163,-0.0212,-0.014,-0.0216,-0.0241,-0.0301,-0.0204,-0.0276,-0.0266,-0.0261,-0.0249,-0.0245,-0.04,-0.029,-0.029,-0.029,-0.0291,0,-0.034,-0.0329,-0.0343,-0.0335,-0.0284,-0.0312,-0.0234,-0.0224,-0.0155,-0.0035,-0.0095,0.003,-0.0087,-0.0048,-0.0156,-0.0153,-0.0134,-0.0252,-0.0227,-0.0248,-0.0246,-0.0415,-0.0529,-0.0285,-0.0286,-0.0287,-0.0288,0,-0.0284,-0.0312,-0.0283,-0.0278,-0.0262,-0.0215,-0.0131,-0.0054,-0.0008,0.0161,0.02,0.0262,0.0324,0.0214,0.0181,0.0033,-0.0102,-0.0024,-0.0024,-0.0004,-0.0254,-0.0365,-0.0407,-0.048,-0.001,-0.0008,-0.0007,0,-0.0247,-0.0237,-0.021,-0.0154,-0.0139,-0.0072,-0.0001,0.0025,0.0136,0.0332,0.0452,0.0563,0.069,0.0642,0.0406,0.0254,0.0039,0.0117,-0.0049,-0.0259,-0.0364,-0.0433,-0.0499,-0.0014,-0.0013,-0.0012,-0.0012,0,-0.0139,-0.0139,-0.0098,0.0001,0.0075,0.0154,0.0262,0.0369,0.0461,0.0625,0.0888,0.101,0.0968,0.0856,0.0616,0.0444,-0.0038,0.0131,-0.0096,-0.039,-0.0464,-0.0523,-0.0095,-0.0003,-0.0004,-0.0005,-0.0005,-0.0005,-0.0009,0.0052,0.0117,0.0213,0.0292,0.0418,0.0525,0.0671,0.0878,0.1166,0.1231,0.1471,0.1193,0.0877,0.0611,0.0056,0.0059,-0.015,-0.0259,-0.0301,-0.0423,0.0038,0.0152,0.0152,0.0152,0.0152,0.0152,0,0.0197,0.0251,0.0343,0.0468,0.0575,0.0558,0.0741,0.0878,0.1164,0.143,0.1664,0.1691,0.1302,0.0839,0.0115,-0.0276,-0.046,-0.0507,-0.0668,-0.0713,-0.0308,-0.0368,-0.0352,-0.0352,-0.0352,-0.0352,-0.0351,-0.0351,0.0336,0.0471,0.0491,0.0712,0.0785,0.0942,0.1046,0.1259,0.1471,0.185,0.2035,0.2142,0.1758,0.0406,-0.0513,-0.0728,-0.1034,-0.1051,-0.1184,-0.1008,-0.0986,-0.0966,-0.1054,-0.1182,-0.1183,-0.1562,-0.1566,-0.1569]}],[{"header":{"parameterUnit":"m.s-1","parameterCategory":2,"la1":30.2991,"la2":30.254,"lo1":-89.0895,"lo2":-89.0444,"dy":0.0017,"dx":0.0017,"nx":28,"ny":28,"refTime":"2025-11-08T03:00:00:Z","depth":"2","parameterNumber":2,"parameterNumberName":"U-component_of_CURRENTS"},"data":[0,0,0,0,0,0,0,0,0,0,0,0,0,0,0,0,0,0,0,0,0,0,0,0,0,0,0,0,0,0,0,0,0,0,0,0,0,0,0,0,0,0,0,0,0,0,0,0,0,0,0,0,0,0,0,0,0,0,0.0663,0.0664,0,0.0746,0.0746,0.0747,0.0784,0.0784,0.0784,0.0784,0.0818,0.0818,0.0819,0,0,0,0,0,0,0,0,0,0,0,0,0,0.0597,0.0597,0.0663,0.0664,0.0665,0.0745,0.0746,0.0747,0.0784,0.0784,0.0784,0.0784,0.0817,0.0818,0.0819,0,0,0,0,0,0,0,0,0,0,0,0,0,0.0645,0.0597,0.0663,0.0694,0.0698,0.0745,0.0746,0.0748,0.0784,0.0784,0.0784,0.0784,0.0817,0.0818,0.0819,0.0826,0,0,0.0823,0.0824,0,0,0,0,0,0,0,0,0.0643,0.0648,0.0689,0.0692,0.0697,0.0756,0.0736,0.0772,0.0784,0.075,0.0784,0.0784,0.0793,0.0797,0.0811,0.0828,0.0829,0.0823,0.0824,0.0825,0.0825,0,0,0,0,0,0,0,0.0639,0.0645,0.0694,0.069,0.0695,0.0725,0.0731,0.0743,0.0768,0.0753,0.0756,0.0768,0.0795,0.0809,0.0811,0.083,0.0823,0.0825,0.0825,0.0826,0.0863,0.0863,0,0,0,0,0,0,0.0629,0.0641,0.0692,0.0697,0.0671,0.0726,0.0733,0.0736,0.0769,0.0775,0.0767,0.0769,0.0807,0.081,0.0813,0.0838,0.0825,0.0826,0.0827,0.0863,0.0863,0.0864,0,0,0,0,0,0,0.0627,0.0632,0.0688,0.0673,0.0682,0.0727,0.073,0.0737,0.0759,0.0781,0.0786,0.0782,0.0807,0.0811,0.0824,0.0839,0.0827,0.0828,0.0863,0.0863,0.0863,0.0878,0,0,0,0,0,0,0.0624,0.0631,0.0638,0.0671,0.0683,0.0715,0.073,0.0739,0.0766,0.0769,0.0795,0.0798,0.0808,0.0822,0.0825,0.084,0.0829,0.0862,0.0863,0.0863,0.0878,0.0879,0.088,0,0,0,0,0,0.0622,0.0632,0.0638,0.0645,0.0688,0.0715,0.0723,0.0755,0.0767,0.0775,0.0791,0.0798,0.0827,0.0823,0.0827,0.0843,0.0862,0.0863,0.0863,0.0877,0.0879,0.088,0,0,0,0,0,0,0.0605,0.0637,0.0645,0.0663,0.0685,0.0722,0.0744,0.0758,0.078,0.0787,0.08,0.0804,0.0826,0.0826,0.0822,0.0853,0.0846,0.0847,0.0855,0.0857,0.0859,0.0865,0.083,0,0,0,0,0,0.0604,0.0624,0.0648,0.0665,0.0677,0.071,0.0729,0.0746,0.0768,0.078,0.0799,0.0816,0.0831,0.0836,0.0854,0.0865,0.0918,0.0877,0.0878,0.0879,0.0886,0.0966,0.0976,0.0865,0.0865,0.0865,0,0,0.0602,0.0626,0.0635,0.0665,0.069,0.0699,0.0722,0.0752,0.076,0.0778,0.0803,0.0827,0.0837,0.0857,0.0866,0.0857,0.0947,0.088,0.0881,0.0887,0.0968,0.0979,0.0989,0.0865,0.0865,0.0865,0,0,0.061,0.0628,0.0646,0.0661,0.0698,0.0708,0.0714,0.0751,0.0769,0.0794,0.081,0.0839,0.0863,0.0875,0.0881,0.0897,0.0958,0.0904,0.0911,0.0989,0.0999,0.1009,0.1131,0.1152,0.0897,0.0897,0.0897,0,0.061,0.0628,0.0655,0.0671,0.068,0.0706,0.071,0.0731,0.0768,0.0799,0.0802,0.0873,0.0872,0.0902,0.0902,0.0902,0.0976,0.0904,0.0993,0.1004,0.1014,0.1136,0.1159,0.0898,0.0898,0.0898,0.0897,0,0.0623,0.0638,0.0652,0.0672,0.0678,0.0695,0.0709,0.0748,0.0777,0.0803,0.0864,0.0879,0.0931,0.0924,0.0913,0.0975,0.102,0.0995,0.0994,0.1026,0.1153,0.1177,0.0899,0.0899,0.0898,0.0898,0,0,0.0623,0.0654,0.0663,0.0681,0.068,0.0704,0.0716,0.0754,0.0818,0.0842,0.092,0.092,0.0964,0.0972,0.0977,0.1015,0.1144,0.103,0.1034,0.1162,0.1372,0.1352,0.1377,0.1145,0.1148,0.1151,0.1449,0,0.0629,0.0662,0.0662,0.0686,0.0697,0.072,0.0741,0.0781,0.0835,0.0924,0.0946,0.1021,0.0969,0.1027,0.105,0.1136,0.12,0.1069,0.1312,0.1321,0.1306,0.1399,0.1257,0.1505,0.1472,0.1476,0.1478,0,0.0638,0.0662,0.0679,0.0725,0.0735,0.0752,0.0837,0.0864,0.096,0.1016,0.1081,0.1125,0.1196,0.1147,0.1305,0.1236,0.1305,0.1352,0.1364,0.1352,0.1342,0.1458,0.1549,0.1518,0.1514,0.1512,0.1509,0,0.0642,0.0682,0.0704,0.0711,0.0753,0.0795,0.0828,0.0906,0.0965,0.11,0.1181,0.1263,0.1359,0.1425,0.1504,0.1441,0.1695,0.1628,0.1679,0.1682,0.1609,0.1598,0.1745,0.1744,0.1744,0.1743,0.1742,0,0.0642,0.0676,0.073,0.0747,0.0812,0.083,0.0925,0.0989,0.1092,0.1176,0.1238,0.1336,0.1434,0.1567,0.1598,0.1737,0.1789,0.1721,0.1757,0.1613,0.1599,0.1623,0.1604,0.1754,0.1751,0.1749,0.1747,0,0.0645,0.0671,0.0726,0.0791,0.0811,0.0874,0.0961,0.1043,0.1142,0.1265,0.1316,0.1466,0.1653,0.1747,0.1922,0.1896,0.2003,0.2029,0.1875,0.1884,0.1924,0.1903,0.215,0.2152,0.2153,0.2154,0.2155,0,0.0652,0.0672,0.0755,0.08,0.0837,0.092,0.0965,0.1056,0.1127,0.1325,0.1379,0.1614,0.1744,0.2011,0.2044,0.2174,0.2133,0.2094,0.1902,0.1955,0.1967,0.1943,0.1921,0.1851,0.1849,0.1848,0.1847,0,0.0667,0.0707,0.075,0.0826,0.0891,0.0951,0.1023,0.107,0.1188,0.1298,0.1466,0.1603,0.1865,0.1957,0.2124,0.2128,0.2053,0.2071,0.222,0.1734,0.1687,0.1693,0.1679,0.1836,0.1837,0.1838,0.1839,0.1839,0.0695,0.0724,0.0783,0.0851,0.0923,0.0961,0.0969,0.106,0.1148,0.1286,0.1447,0.162,0.1767,0.1947,0.1964,0.1971,0.2063,0.1968,0.1967,0.1969,0.1844,0.1798,0.195,0.1952,0.1953,0.1955,0.1956,0,0.0703,0.0727,0.0795,0.0845,0.0878,0.0938,0.0984,0.0987,0.1044,0.1254,0.1397,0.1426,0.1589,0.1733,0.1743,0.1776,0.1686,0.1707,0.1583,0.1598,0.161,0.1459,0.1469,0.1467,0.1465,0.1463,0,0,0.0711,0.0738,0.0742,0.077,0.0807,0.081,0.081,0.0859,0.0982,0.109,0.1216,0.1469,0.1663,0.1518,0.1546,0.1522,0.1519,0.1458,0.1856,0.1722,0.1731,0.1784,0.1574,0,0,0,0,0]},{"header":{"parameterUnit":"m.s-1","parameterCategory":2,"la1":30.2991,"la2":30.254,"lo1":-89.0895,"lo2":-89.0444,"dy":0.0017,"dx":0.0017,"nx":28,"ny":28,"refTime":"2025-11-08T03:00:00:Z","depth":"2","parameterNumber":3,"parameterNumberName":"V-component_of_CURRENTS"},"data":[0,0,0,0,0,0,0,0,0,0,0,0,0,0,0,0,0,0,0,0,0,0,0,0,0,0,0,0,0,0,0,0,0,0,0,0,0,0,0,0,0,0,0,0,0,0,0,0,0,0,0,0,0,0,0,0,0,0,-0.0391,-0.0391,0,-0.044,-0.0441,-0.0441,-0.0467,-0.0467,-0.0467,-0.0468,-0.0517,-0.0518,-0.0519,0,0,0,0,0,0,0,0,0,0,0,0,0,-0.0343,-0.0343,-0.0391,-0.0391,-0.0392,-0.044,-0.0441,-0.0441,-0.0467,-0.0467,-0.0467,-0.0468,-0.0516,-0.0518,-0.0519,0,0,0,0,0,0,0,0,0,0,0,0,0,-0.0374,-0.0343,-0.0391,-0.0411,-0.0414,-0.044,-0.0441,-0.0441,-0.0467,-0.0467,-0.0467,-0.0468,-0.0516,-0.0517,-0.0519,-0.0527,0,0,-0.0525,-0.0526,0,0,0,0,0,0,0,0,-0.0372,-0.0376,-0.0408,-0.041,-0.0413,-0.0448,-0.0442,-0.047,-0.0467,-0.0446,-0.0468,-0.0468,-0.0494,-0.0498,-0.0506,-0.053,-0.0532,-0.0525,-0.0526,-0.0527,-0.0527,0,0,0,0,0,0,0,-0.037,-0.0374,-0.041,-0.0408,-0.0411,-0.0426,-0.0431,-0.0447,-0.0468,-0.0448,-0.045,-0.0457,-0.0495,-0.0504,-0.0507,-0.0532,-0.0525,-0.0526,-0.0528,-0.0528,-0.0564,-0.0564,0,0,0,0,0,0,-0.0364,-0.0372,-0.0408,-0.0411,-0.0393,-0.0427,-0.0432,-0.0436,-0.0468,-0.0473,-0.0457,-0.0458,-0.0501,-0.0505,-0.0509,-0.0529,-0.0527,-0.0528,-0.053,-0.0564,-0.0564,-0.0564,0,0,0,0,0,0,-0.0363,-0.0367,-0.0406,-0.0393,-0.0399,-0.0428,-0.0432,-0.0437,-0.0447,-0.0475,-0.048,-0.0462,-0.0501,-0.0506,-0.0522,-0.0531,-0.0529,-0.0531,-0.0564,-0.0564,-0.0564,-0.0565,0,0,0,0,0,0,-0.0361,-0.0366,-0.0368,-0.0393,-0.04,-0.0418,-0.0432,-0.0438,-0.0451,-0.0453,-0.0481,-0.0485,-0.0501,-0.052,-0.0524,-0.0534,-0.0532,-0.0564,-0.0564,-0.0564,-0.0565,-0.0565,-0.0564,0,0,0,0,0,-0.0359,-0.036,-0.0368,-0.0372,-0.0401,-0.0417,-0.0422,-0.0443,-0.0451,-0.0453,-0.0472,-0.0485,-0.0521,-0.0521,-0.0526,-0.0537,-0.0564,-0.0564,-0.0564,-0.0565,-0.0565,-0.0564,0,0,0,0,0,0,-0.0339,-0.0363,-0.0372,-0.038,-0.0396,-0.0422,-0.043,-0.0441,-0.0458,-0.0463,-0.0485,-0.0491,-0.051,-0.0518,-0.0517,-0.0544,-0.0544,-0.0545,-0.0543,-0.0543,-0.0543,-0.0541,-0.0534,0,0,0,0,0,-0.0335,-0.0346,-0.0366,-0.0375,-0.0382,-0.0405,-0.0415,-0.0428,-0.0446,-0.0454,-0.0474,-0.0493,-0.0513,-0.0523,-0.054,-0.0554,-0.0549,-0.0562,-0.0561,-0.0561,-0.0563,-0.0562,-0.0562,-0.0563,-0.0563,-0.0563,0,0,-0.0331,-0.0347,-0.0353,-0.0372,-0.0388,-0.0398,-0.0412,-0.0426,-0.0436,-0.0457,-0.0477,-0.0495,-0.0516,-0.0535,-0.0544,-0.0543,-0.0555,-0.0561,-0.0561,-0.0562,-0.0561,-0.0561,-0.0561,-0.0562,-0.0562,-0.0562,0,0,-0.0328,-0.0341,-0.0347,-0.036,-0.0381,-0.0394,-0.0396,-0.042,-0.0432,-0.0452,-0.047,-0.0491,-0.052,-0.0537,-0.0549,-0.0555,-0.0555,-0.0558,-0.0558,-0.0557,-0.0557,-0.0557,-0.0536,-0.0534,-0.0557,-0.0557,-0.0557,0,-0.0321,-0.033,-0.035,-0.0359,-0.0366,-0.0391,-0.0391,-0.0412,-0.0437,-0.0448,-0.0458,-0.0502,-0.0523,-0.0544,-0.0552,-0.0557,-0.0546,-0.056,-0.0557,-0.0557,-0.0557,-0.0535,-0.0533,-0.0557,-0.0557,-0.0557,-0.0557,0,-0.0324,-0.0329,-0.0334,-0.0353,-0.0361,-0.0368,-0.0391,-0.041,-0.043,-0.0447,-0.0473,-0.0501,-0.0523,-0.0537,-0.0553,-0.0563,-0.055,-0.0558,-0.0559,-0.0557,-0.0534,-0.0532,-0.0557,-0.0557,-0.0557,-0.0557,0,0,-0.0309,-0.033,-0.0334,-0.0335,-0.0355,-0.0362,-0.0384,-0.0404,-0.0409,-0.0451,-0.045,-0.0508,-0.0518,-0.0532,-0.0548,-0.0557,-0.0552,-0.0559,-0.0559,-0.0539,-0.053,-0.0582,-0.0584,-0.0558,-0.0558,-0.0558,-0.0509,0,-0.0302,-0.0308,-0.0322,-0.0325,-0.0322,-0.0352,-0.0361,-0.0387,-0.0403,-0.041,-0.0455,-0.0454,-0.0515,-0.0507,-0.0538,-0.0534,-0.0548,-0.0563,-0.0534,-0.0533,-0.0581,-0.0585,-0.056,-0.0521,-0.0507,-0.0506,-0.0506,0,-0.0295,-0.0297,-0.0293,-0.0297,-0.0299,-0.0307,-0.0319,-0.0331,-0.0356,-0.0361,-0.039,-0.0404,-0.0428,-0.0466,-0.0499,-0.0501,-0.0525,-0.0534,-0.0533,-0.0582,-0.0582,-0.0523,-0.0518,-0.0503,-0.0503,-0.0503,-0.0503,0,-0.0264,-0.0276,-0.0269,-0.0274,-0.0285,-0.0293,-0.0301,-0.0318,-0.0298,-0.031,-0.0274,-0.0335,-0.0305,-0.0377,-0.0425,-0.0449,-0.0443,-0.0471,-0.0545,-0.0546,-0.0522,-0.0524,-0.0504,-0.0504,-0.0504,-0.0504,-0.0504,0,-0.024,-0.0237,-0.0257,-0.0253,-0.0234,-0.026,-0.023,-0.0249,-0.0228,-0.0173,-0.0234,-0.0183,-0.0277,-0.0292,-0.0383,-0.0454,-0.0414,-0.0547,-0.0546,-0.0521,-0.0523,-0.051,-0.0511,-0.0502,-0.0503,-0.0503,-0.0503,0,-0.0203,-0.0219,-0.0209,-0.0221,-0.0214,-0.0204,-0.0161,-0.0133,-0.0123,-0.0043,-0.0028,-0.0033,-0.0067,-0.0175,-0.0243,-0.0359,-0.0442,-0.0478,-0.044,-0.0439,-0.0554,-0.0556,-0.0558,-0.0559,-0.0561,-0.0562,-0.0563,0,-0.0182,-0.0175,-0.0173,-0.0144,-0.0144,-0.0118,-0.0081,-0.0076,-0.0021,0.0055,0.0111,0.0109,0.0113,-0.0029,-0.0229,-0.0398,-0.0429,-0.049,-0.0566,-0.0565,-0.0563,-0.0563,-0.0563,-0.0509,-0.051,-0.051,-0.0511,0,-0.0137,-0.0147,-0.0137,-0.0073,-0.0036,0.0017,0.007,0.0134,0.0165,0.024,0.0336,0.0347,0.0201,0.0038,-0.0216,-0.0348,-0.0478,-0.0508,-0.0484,-0.0526,-0.0523,-0.0521,-0.0521,-0.0514,-0.0513,-0.0513,-0.0513,-0.0513,-0.0103,-0.0084,-0.0064,-0.0006,0.0056,0.0143,0.0216,0.0291,0.0389,0.0511,0.0485,0.0521,0.0302,-0.0014,-0.0239,-0.0482,-0.0506,-0.0589,-0.0586,-0.0582,-0.0612,-0.0615,-0.0625,-0.0626,-0.0626,-0.0626,-0.0626,0,-0.0069,-0.0044,0.0017,0.0079,0.0159,0.0186,0.0318,0.0418,0.0558,0.0639,0.0697,0.0513,0.0301,0.0065,-0.0297,-0.0541,-0.0544,-0.0607,-0.055,-0.0548,-0.0545,-0.0571,-0.0574,-0.0574,-0.0574,-0.0574,0,0,-0.0049,-0.0001,0.0023,0.0149,0.0218,0.0363,0.0456,0.0616,0.0727,0.0818,0.0829,0.0742,0.0431,0.0179,-0.0155,-0.0339,-0.0379,-0.0382,-0.0406,-0.0298,-0.029,-0.0529,-0.0566,0,0,0,0,0]}],[{"header":{"parameterUnit":"m.s-1","parameterCategory":2,"la1":30.2991,"la2":30.254,"lo1":-89.0895,"lo2":-89.0444,"dy":0.0017,"dx":0.0017,"nx":28,"ny":28,"refTime":"2025-11-08T03:00:00:Z","depth":"4","parameterNumber":2,"parameterNumberName":"U-component_of_CURRENTS"},"data":[0,0,0,0,0,0,0,0,0,0,0,0,0,0,0,0,0,0,0,0,0,0,0,0,0,0,0,0,0,0,0,0,0,0,0,0,0,0,0,0,0,0,0,0,0,0,0,0,0,0,0,0,0,0,0,0,0,0,0.0311,0.0311,0,0.0343,0.0343,0.0343,0.0367,0.0367,0.0368,0.0368,0.0393,0.0394,0.0394,0,0,0,0,0,0,0,0,0,0,0,0,0,0.0259,0.0259,0.0311,0.0311,0.0312,0.0343,0.0343,0.0343,0.0367,0.0367,0.0368,0.0368,0.0393,0.0394,0.0394,0,0,0,0,0,0,0,0,0,0,0,0,0,0.0284,0.026,0.0311,0.0328,0.033,0.0343,0.0343,0.0344,0.0367,0.0367,0.0368,0.0368,0.0393,0.0393,0.0394,0.0387,0,0,0.0396,0.0396,0,0,0,0,0,0,0,0,0.0282,0.0285,0.0325,0.0327,0.033,0.0353,0.0334,0.0358,0.0367,0.0351,0.0368,0.0368,0.038,0.0381,0.0384,0.0388,0.0389,0.0396,0.0396,0.0396,0.0396,0,0,0,0,0,0,0,0.028,0.0284,0.0322,0.0326,0.0328,0.0331,0.0335,0.0339,0.0361,0.0353,0.0355,0.0361,0.0381,0.0384,0.0385,0.039,0.0396,0.0396,0.0396,0.0397,0.0432,0.0433,0,0,0,0,0,0,0.028,0.0282,0.0321,0.0323,0.0308,0.0332,0.0336,0.0344,0.0361,0.0365,0.036,0.0362,0.0382,0.0384,0.0386,0.0425,0.0396,0.0397,0.0397,0.0431,0.0432,0.0433,0,0,0,0,0,0,0.0278,0.0283,0.032,0.0304,0.031,0.0332,0.034,0.0344,0.036,0.0367,0.0371,0.0375,0.0383,0.0385,0.0404,0.0424,0.0397,0.0397,0.0431,0.0432,0.0433,0.0473,0,0,0,0,0,0,0.0277,0.0282,0.0289,0.0305,0.0311,0.0336,0.034,0.0344,0.0363,0.0366,0.038,0.0383,0.0383,0.0403,0.0404,0.0425,0.0398,0.043,0.0431,0.0432,0.0471,0.0476,0.0479,0,0,0,0,0,0.0275,0.0281,0.029,0.0295,0.0319,0.0336,0.034,0.0356,0.0363,0.0372,0.0385,0.0383,0.0411,0.0404,0.0405,0.0426,0.0429,0.0431,0.0432,0.0469,0.0475,0.0479,0,0,0,0,0,0,0.026,0.0285,0.0294,0.0308,0.0326,0.0341,0.0353,0.0362,0.0379,0.0386,0.039,0.0393,0.0414,0.0413,0.0405,0.0439,0.042,0.0422,0.0448,0.0453,0.0457,0.0469,0.0398,0,0,0,0,0,0.0261,0.0275,0.0297,0.0308,0.032,0.0338,0.0348,0.0361,0.0377,0.0385,0.0396,0.0408,0.0418,0.043,0.0434,0.0455,0.0466,0.0469,0.0473,0.0477,0.0487,0.0519,0.0528,0.0437,0.0437,0.0437,0,0,0.0256,0.0274,0.028,0.0307,0.0323,0.0343,0.0346,0.0368,0.0389,0.0384,0.0417,0.0419,0.0424,0.0447,0.0458,0.0453,0.0509,0.0478,0.0482,0.0491,0.0522,0.0531,0.0538,0.0438,0.0438,0.0438,0,0,0.0254,0.0273,0.0286,0.0305,0.0336,0.0351,0.0361,0.0386,0.0404,0.0429,0.0433,0.0452,0.0466,0.0481,0.0488,0.0516,0.0523,0.0516,0.0556,0.0587,0.0595,0.0602,0.0632,0.0641,0.0525,0.0526,0.0526,0,0.0248,0.0272,0.0291,0.0313,0.0335,0.0357,0.0381,0.0401,0.0429,0.0453,0.0446,0.0484,0.0485,0.0524,0.0535,0.0528,0.0546,0.0538,0.0594,0.0601,0.0607,0.0636,0.0646,0.0528,0.0527,0.0527,0.0527,0,0.0258,0.0282,0.0293,0.0332,0.0357,0.038,0.0415,0.0443,0.0466,0.0489,0.0531,0.0535,0.0561,0.0563,0.0559,0.0609,0.0607,0.059,0.0584,0.0619,0.0647,0.0656,0.0531,0.053,0.0529,0.0529,0,0,0.0232,0.0289,0.0294,0.0321,0.0373,0.0393,0.0441,0.0491,0.0529,0.0554,0.0603,0.0621,0.0629,0.0637,0.0636,0.0666,0.0723,0.0654,0.0655,0.0688,0.08,0.0777,0.0785,0.072,0.0722,0.0724,0.0802,0,0.0237,0.0277,0.0311,0.0356,0.0384,0.0431,0.0472,0.0522,0.0564,0.0614,0.064,0.0675,0.0656,0.0672,0.07,0.0717,0.075,0.0704,0.0756,0.0758,0.0738,0.0796,0.0729,0.0809,0.0811,0.0813,0.0814,0,0.0238,0.0269,0.0313,0.0381,0.0399,0.0432,0.0515,0.0555,0.0632,0.0665,0.0713,0.0732,0.0785,0.0753,0.082,0.0794,0.0803,0.0813,0.0816,0.0789,0.0754,0.0764,0.0831,0.083,0.0829,0.0827,0.0826,0,0.0212,0.0273,0.0311,0.0333,0.0409,0.0448,0.0494,0.0574,0.0627,0.0704,0.0751,0.0802,0.0844,0.0865,0.0886,0.0862,0.0955,0.0919,0.091,0.0908,0.0885,0.0876,0.0966,0.0966,0.0966,0.0966,0.0966,0,0.0208,0.0237,0.0303,0.0324,0.038,0.0438,0.0513,0.0564,0.0655,0.0722,0.0774,0.083,0.0877,0.0931,0.0925,0.0959,0.0988,0.0937,0.0935,0.0899,0.0892,0.0892,0.0882,0.0969,0.0968,0.0968,0.0967,0,0.0178,0.0218,0.0263,0.0341,0.0371,0.0412,0.0525,0.0578,0.0663,0.0755,0.0785,0.0884,0.0959,0.0999,0.1049,0.1021,0.104,0.1038,0.1017,0.1009,0.0962,0.0953,0.1045,0.1045,0.1045,0.1045,0.1045,0,0.0167,0.0184,0.0264,0.0298,0.0339,0.0414,0.047,0.0569,0.063,0.0777,0.0815,0.0933,0.0987,0.1056,0.1081,0.1102,0.1079,0.1081,0.1006,0.0986,0.0974,0.0966,0.0957,0.1045,0.1045,0.1045,0.1045,0,0.0143,0.017,0.0209,0.028,0.034,0.0406,0.0493,0.0538,0.0655,0.0739,0.0846,0.091,0.1007,0.1051,0.1091,0.1085,0.1075,0.1081,0.108,0.1009,0.0987,0.0974,0.0965,0.1045,0.1045,0.1045,0.1045,0,0.0121,0.0142,0.0197,0.0261,0.0328,0.0385,0.0437,0.053,0.0607,0.0765,0.0796,0.0914,0.1003,0.1044,0.1065,0.1085,0.106,0.1009,0.1011,0.1011,0.0963,0.0928,0.0988,0,0,0,0,0,0.0099,0.0127,0.0181,0.025,0.0315,0.0357,0.045,0.0504,0.0616,0.068,0.0745,0.0828,0.0916,0.0969,0.0983,0.1035,0.1046,0.1046,0.0981,0.1046,0.1046,0.0991,0,0,0,0,0,0,0.0085,0.0128,0.0166,0.0228,0.0272,0.0343,0.0397,0.047,0.0518,0.0633,0.0687,0.0777,0.0868,0.0901,0.0966,0.0982,0.0926,0.1116,0.1115,0.1046,0.1046,0.1046,0.099,0,0,0,0,0]},{"header":{"parameterUnit":"m.s-1","parameterCategory":2,"la1":30.2991,"la2":30.254,"lo1":-89.0895,"lo2":-89.0444,"dy":0.0017,"dx":0.0017,"nx":28,"ny":28,"refTime":"2025-11-08T03:00:00:Z","depth":"4","parameterNumber":3,"parameterNumberName":"V-component_of_CURRENTS"},"data":[0,0,0,0,0,0,0,0,0,0,0,0,0,0,0,0,0,0,0,0,0,0,0,0,0,0,0,0,0,0,0,0,0,0,0,0,0,0,0,0,0,0,0,0,0,0,0,0,0,0,0,0,0,0,0,0,0,0,0.0083,0.0082,0,0.0039,0.0038,0.0038,-0.0011,-0.0012,-0.0013,-0.0013,-0.0102,-0.0103,-0.0105,0,0,0,0,0,0,0,0,0,0,0,0,0,0.0084,0.0084,0.0083,0.0082,0.0082,0.0039,0.0038,0.0038,-0.0011,-0.0012,-0.0013,-0.0013,-0.0101,-0.0103,-0.0105,0,0,0,0,0,0,0,0,0,0,0,0,0,0.0065,0.0084,0.0083,0.0053,0.005,0.0039,0.0038,0.0037,-0.0011,-0.0012,-0.0013,-0.0014,-0.01,-0.0103,-0.0105,-0.0104,0,0,-0.0114,-0.0115,0,0,0,0,0,0,0,0,0.0066,0.0065,0.0058,0.0055,0.0052,0.0019,0.0006,-0.0012,-0.0011,0.0011,-0.0013,-0.0014,-0.0064,-0.0069,-0.0077,-0.0108,-0.0112,-0.0114,-0.0116,-0.0117,-0.0117,0,0,0,0,0,0,0,0.0068,0.0066,0.0064,0.0058,0.0054,0.0029,0.0025,0.0003,-0.0023,0.0009,0.0006,0.0003,-0.0066,-0.0074,-0.0079,-0.0113,-0.0114,-0.0116,-0.0118,-0.0119,-0.0205,-0.0205,0,0,0,0,0,0,0.0079,0.0068,0.0066,0.0063,0.0058,0.003,0.0026,0.003,-0.0021,-0.0029,0.0004,0.0001,-0.0069,-0.0076,-0.0083,-0.0109,-0.0117,-0.0119,-0.0121,-0.0204,-0.0205,-0.0206,0,0,0,0,0,0,0.0079,0.0079,0.0067,0.0065,0.0062,0.0031,0.0036,0.0029,0.0008,-0.0025,-0.0034,-0.0013,-0.007,-0.0079,-0.0118,-0.0112,-0.012,-0.0123,-0.0203,-0.0204,-0.0205,-0.0145,0,0,0,0,0,0,0.008,0.008,0.0082,0.0066,0.0062,0.0062,0.0037,0.0029,0.0009,0.0004,-0.0042,-0.005,-0.0071,-0.0114,-0.0121,-0.0116,-0.0125,-0.0202,-0.0204,-0.0205,-0.0146,-0.0144,-0.0142,0,0,0,0,0,0.008,0.0097,0.0083,0.0082,0.0068,0.0063,0.0059,0.0032,0.0009,0.0007,-0.0035,-0.0049,-0.0127,-0.0116,-0.0124,-0.012,-0.0202,-0.0203,-0.0205,-0.0147,-0.0144,-0.0142,0,0,0,0,0,0,0.01,0.0093,0.0077,0.0091,0.0075,0.0055,0.0052,0.0029,-0.0005,-0.0018,-0.0056,-0.0067,-0.0099,-0.0124,-0.0112,-0.0152,-0.0167,-0.017,-0.0121,-0.0118,-0.0116,-0.0094,-0.0127,0,0,0,0,0,0.0106,0.0114,0.0098,0.0106,0.01,0.0071,0.0062,0.0043,0.0014,-0.0002,-0.0037,-0.0078,-0.0108,-0.0125,-0.0156,-0.0175,-0.0208,-0.0181,-0.0179,-0.0176,-0.0167,-0.0211,-0.0211,-0.0211,-0.0211,-0.0211,0,0,0.0117,0.0112,0.0117,0.011,0.0094,0.01,0.0063,0.0052,0.0052,-0.0006,-0.0026,-0.0071,-0.0114,-0.0136,-0.0152,-0.0157,-0.0199,-0.0178,-0.0176,-0.0167,-0.0212,-0.0212,-0.0212,-0.0212,-0.0211,-0.0211,0,0,0.0148,0.0136,0.0153,0.0145,0.0126,0.0113,0.0108,0.008,0.0061,0.0033,-0.0009,-0.0049,-0.0099,-0.012,-0.0138,-0.0144,-0.0187,-0.0165,-0.013,-0.0173,-0.0173,-0.0173,-0.0227,-0.0233,-0.0161,-0.016,-0.016,0,0.0157,0.0176,0.0156,0.0168,0.0167,0.0121,0.0136,0.0118,0.0078,0.0061,0.0031,-0.0053,-0.0084,-0.0107,-0.011,-0.0134,-0.0178,-0.013,-0.0167,-0.0168,-0.0169,-0.0225,-0.0232,-0.0158,-0.0158,-0.0158,-0.0159,0,0.02,0.0211,0.022,0.0222,0.0219,0.0222,0.02,0.0182,0.0143,0.0114,0.0064,0.0009,-0.0045,-0.0058,-0.0084,-0.0108,-0.0144,-0.0159,-0.0165,-0.0165,-0.0225,-0.0233,-0.0154,-0.0155,-0.0156,-0.0156,0,0,0.0226,0.0248,0.0247,0.025,0.0245,0.0241,0.0249,0.0233,0.021,0.0165,0.0128,0.0086,0.0029,0.0003,-0.0043,-0.007,-0.0116,-0.0115,-0.0119,-0.0154,-0.023,-0.0212,-0.022,-0.0143,-0.0144,-0.0144,-0.0273,0,0.0258,0.0294,0.03,0.0322,0.0331,0.0308,0.0312,0.0287,0.0242,0.0192,0.0138,0.0077,0.006,0.0009,-0.0014,-0.0105,-0.0133,-0.0081,-0.0239,-0.0243,-0.0214,-0.0226,-0.0147,-0.0279,-0.0281,-0.0283,-0.0284,0,0.0288,0.0307,0.0343,0.0351,0.0352,0.0358,0.0331,0.0324,0.0266,0.0223,0.0167,0.01,0.0043,0.0019,-0.0095,-0.0069,-0.0137,-0.0193,-0.02,-0.0204,-0.0238,-0.028,-0.0299,-0.0297,-0.0296,-0.0295,-0.0294,0,0.029,0.0329,0.0354,0.036,0.0369,0.037,0.0363,0.0323,0.0298,0.0221,0.0173,0.0101,0.0027,-0.0046,-0.015,-0.0142,-0.0281,-0.0291,-0.0331,-0.0332,-0.0336,-0.0334,-0.0355,-0.0355,-0.0355,-0.0354,-0.0354,0,0.0309,0.0323,0.035,0.0357,0.0361,0.0365,0.0344,0.0322,0.0274,0.024,0.0172,0.0122,0.0005,-0.0086,-0.0162,-0.0272,-0.0295,-0.0325,-0.0358,-0.0312,-0.0306,-0.0343,-0.0339,-0.0359,-0.0358,-0.0357,-0.0356,0,0.0291,0.0321,0.0337,0.0356,0.0358,0.0347,0.0334,0.0311,0.027,0.0221,0.0193,0.0103,-0.0012,-0.0118,-0.0263,-0.03,-0.04,-0.0427,-0.0381,-0.041,-0.0424,-0.0417,-0.0499,-0.0499,-0.05,-0.05,-0.05,0,0.0282,0.0292,0.0317,0.0317,0.0321,0.0313,0.0307,0.0296,0.0281,0.0222,0.02,0.008,0.0016,-0.0174,-0.0278,-0.0431,-0.0432,-0.0488,-0.0432,-0.0412,-0.0437,-0.0429,-0.0421,-0.05,-0.0501,-0.0501,-0.0501,0,0.0242,0.0251,0.0259,0.027,0.0271,0.0286,0.0285,0.0281,0.0274,0.0243,0.0195,0.0101,-0.0029,-0.0163,-0.0289,-0.0385,-0.0454,-0.0491,-0.049,-0.0438,-0.0414,-0.0437,-0.0429,-0.0501,-0.0501,-0.0501,-0.0501,0,0.0186,0.0183,0.0194,0.0207,0.0225,0.0258,0.0266,0.0269,0.0263,0.0232,0.0219,0.0094,0.0019,-0.014,-0.0247,-0.0352,-0.0368,-0.0377,-0.0383,-0.0384,-0.0295,-0.0245,-0.0308,0,0,0,0,0,0.0115,0.0117,0.0129,0.0158,0.0194,0.0219,0.0252,0.0268,0.0283,0.0259,0.0245,0.0141,-0.0022,-0.0101,-0.0204,-0.0263,-0.04,-0.0385,-0.0416,-0.0506,-0.0505,-0.0416,0,0,0,0,0,0,0.0056,0.0058,0.0105,0.0131,0.0158,0.02,0.0237,0.0255,0.025,0.0249,0.016,0.0129,-0.0041,0.0031,-0.0205,-0.0239,-0.0265,-0.0465,-0.0466,-0.0507,-0.0506,-0.0505,-0.0413,0,0,0,0,0]}]]